EW5635 Weather Reports


time (UTC)temp
C
wind
direction
speed
KPH
gust
KPH
rain 1hr
cm
rain 24hr
cm
rain mn
cm
humidity
%
barometer
mb
20260506163618 18 170 3.2 9.7 0.00 0.51 0.38 64 1006.1
20260506162556 18 183 3.2 6.4 0.00 0.51 0.38 61 1006.0
20260506161553 18 161 3.2 11.3 0.00 0.51 0.38 60 1006.0
20260506160550 18 201 1.6 6.4 0.00 0.51 0.38 61 1005.9
20260506155547 17 134 3.2 9.7 0.00 0.51 0.38 61 1006.1
20260506154545 17 156 3.2 9.7 0.00 0.51 0.38 61 1006.0
20260506153542 18 203 4.8 11.3 0.00 0.51 0.38 57 1006.0
20260506152539 20 170 6.4 14.5 0.00 0.51 0.38 54 1006.0
20260506151536 20 185 6.4 12.9 0.00 0.51 0.38 54 1006.0
20260506150528 20 159 4.8 14.5 0.00 0.51 0.38 53 1006.1
20260506145525 20 173 4.8 11.3 0.00 0.51 0.38 50 1006.0
20260506144537 19 190 4.8 9.7 0.00 0.51 0.38 57 1006.1
20260506143615 19 168 1.6 3.2 0.00 0.51 0.38 57 1006.2
20260506142612 20 189 3.2 6.4 0.00 0.51 0.38 53 1006.0
20260506141554 20 192 4.8 12.9 0.00 0.51 0.38 51 1006.0
20260506140611 19 180 6.4 11.3 0.00 0.51 0.38 53 1006.0
20260506135548 19 149 4.8 11.3 0.00 0.51 0.38 53 1006.2
20260506134539 18 158 1.6 6.4 0.00 0.51 0.38 52 1006.0
20260506133558 20 147 3.2 6.4 0.00 0.51 0.38 48 1006.2
20260506132528 20 180 4.8 6.4 0.00 0.51 0.38 50 1006.3
20260506131525 21 199 4.8 9.7 0.00 0.51 0.38 47 1006.3
20260506130517 21 214 1.6 6.4 0.00 0.51 0.38 45 1006.4
20260506125614 21 193 0.0 3.2 0.00 0.51 0.38 52 1006.5
20260506124612 20 164 3.2 9.7 0.00 0.51 0.38 53 1006.5
20260506123553 19 142 1.6 11.3 0.00 0.51 0.38 53 1006.5
20260506122550 17 136 1.6 6.4 0.00 0.51 0.38 56 1006.5
20260506121548 18 160 3.2 9.7 0.00 0.51 0.38 57 1006.7
20260506120539 18 45 4.8 6.4 0.00 0.51 0.38 57 1006.7
20260506115537 19 137 4.8 6.4 0.00 0.51 0.38 60 1006.8
20260506114528 18 145 4.8 9.7 0.00 0.51 0.38 60 1007.0
20260506113526 18 186 4.8 11.3 0.00 0.51 0.38 66 1007.1
20260506112518 17 135 4.8 6.4 0.00 0.51 0.38 66 1007.1
20260506111635 17 174 4.8 11.3 0.03 0.51 0.38 68 1007.4
20260506110612 17 141 3.2 11.3 0.03 0.51 0.38 72 1007.5
20260506105553 15 168 3.2 9.7 0.03 0.51 0.38 79 1007.5
20260506104550 13 184 1.6 6.4 0.03 0.51 0.38 85 1007.5
20260506103608 13 195 3.2 11.3 0.03 0.51 0.38 88 1007.6
20260506102539 14 0.0 0.0 0.03 0.51 0.38 77 1007.6
20260506101536 15 307 6.4 14.5 0.00 0.48 0.36 69 1007.7
20260506100528 18 330 4.8 11.3 0.00 0.48 0.36 61 1007.3
20260506095526 18 197 1.6 6.4 0.00 0.48 0.36 61 1007.4
20260506094517 17 288 1.6 9.7 0.00 0.48 0.36 64 1007.4
20260506093614 17 335 3.2 6.4 0.00 0.48 0.36 64 1007.4
20260506092611 17 49 1.6 3.2 0.00 0.48 0.36 64 1007.4
20260506091554 16 344 3.2 6.4 0.00 0.48 0.36 71 1007.3
20260506090610 17 295 1.6 3.2 0.00 0.48 0.36 73 1007.3
20260506085548 16 351 1.6 6.4 0.00 0.48 0.36 72 1007.2
20260506084559 16 172 1.6 3.2 0.00 0.48 0.36 73 1007.3
20260506083536 16 0 0.0 3.2 0.00 0.48 0.36 73 1007.2
20260506082529 16 163 1.6 6.4 0.00 0.48 0.36 76 1007.1
20260506081547 15 158 1.6 3.2 0.00 0.48 0.36 79 1007.1
20260506080543 15 203 0.0 3.2 0.00 0.48 0.36 83 1007.1
20260506072550 11 189 1.6 3.2 0.00 0.48 0.36 99 1007.0
20260506071547 11 191 0.0 3.2 0.00 0.48 0.36 99 1007.0
20260506070539 11 161 1.6 3.2 0.00 0.48 0.36 99 1007.0
20260506061614 10 0.0 3.2 0.00 0.48 0.36 99 1006.4
20260506060633 9 203 1.6 3.2 0.00 0.48 0.36 99 1006.2
20260506050527 10 158 0.0 3.2 0.00 0.69 0.36 99 1005.7
20260506044517 9 68 0.0 3.2 0.00 0.81 0.36 99 1005.4
20260506043614 9 68 0.0 3.2 0.00 0.89 0.36 99 1005.4
20260506042611 9 0.0 0.0 0.00 0.97 0.36 99 1005.4
20260506041553 9 0 0.0 3.2 0.00 0.99 0.36 99 1005.3
20260506040550 10 14 1.6 3.2 0.00 0.99 0.36 99 1005.2
20260506035550 10 23 0.0 3.2 0.00 1.02 0.36 99 1005.2
20260506034539 10 23 0.0 3.2 0.00 1.04 0.36 99 1005.5
20260506033536 10 0.0 0.0 0.00 1.12 0.36 98 1005.3
20260506032548 10 20 1.6 3.2 0.00 1.27 0.36 98 1005.3
20260506031525 10 0 1.6 3.2 0.00 1.30 0.36 98 1005.4
20260506030517 10 0.0 0.0 0.00 1.30 0.36 98 1005.5
20260506025614 10 23 1.6 6.4 0.00 1.35 0.36 98 1005.4
20260506024611 10 7 1.6 3.2 0.00 1.37 0.36 98 1005.5
20260506023613 10 338 0.0 3.2 0.00 1.47 0.36 98 1005.6
20260506022550 10 0.0 3.2 0.00 1.50 0.36 98 1005.6
20260506021607 10 225 0.0 3.2 0.00 1.63 0.36 98 1005.7
20260506020539 10 0.0 3.2 0.00 1.68 0.36 98 1005.6
20260506015556 10 319 1.6 3.2 0.00 1.80 0.36 98 1005.8
20260506014528 10 0.0 3.2 0.00 1.80 0.36 98 1005.6
20260506013525 10 0.0 0.0 0.03 1.83 0.36 98 1005.5
20260506012516 10 0.0 0.0 0.03 1.85 0.36 98 1005.4
20260506011614 10 23 0.0 3.2 0.10 1.88 0.36 98 1005.3
20260506010611 10 7 0.0 3.2 0.13 1.96 0.36 98 1005.5
20260506005553 10 23 0.0 3.2 0.15 1.98 0.36 98 1005.6
20260506004610 10 23 1.6 3.2 0.15 1.98 0.36 98 1005.8
20260506003547 10 17 1.6 3.2 0.15 1.98 0.33 98 1005.9
20260506002539 11 0 1.6 3.2 0.20 2.03 0.33 98 1006.1
20260506001538 11 8 1.6 3.2 0.20 2.01 0.28 98 1006.3
20260506000528 11 23 1.6 3.2 0.18 2.01 0.23 98 1006.6
20260505235525 11 23 0.0 3.2 0.18 1.98 0.20 98 1006.5
20260505234517 11 23 0.0 3.2 0.18 2.06 0.20 97 1006.7
20260505233614 11 0.0 3.2 0.15 2.13 0.18 97 1006.8
20260505232632 11 0.0 0.0 0.13 2.21 0.13 97 1006.9
20260505231553 11 0.0 3.2 0.05 2.34 0.05 97 1007.1
20260505230550 11 0.0 0.0 0.05 2.39 0.05 97 1007.0
20260505225547 11 0.0 0.0 0.03 2.39 0.03 97 1007.0
20260505224539 11 0.0 3.2 0.05 2.44 0.03 97 1006.9
20260505223536 11 352 1.6 3.2 0.05 2.62 0.03 97 1007.1
20260505222528 11 7 1.6 6.4 0.03 2.64 0.00 97 1007.0
20260505221525 11 0.0 3.2 0.03 2.69 0.00 97 1007.2
20260505220517 11 350 1.6 3.2 0.03 2.77 0.00 96 1007.2
20260505215614 11 23 1.6 6.4 0.03 2.79 2.79 96 1007.3
20260505214623 11 14 1.6 3.2 0.00 2.87 2.77 96 1007.4
20260505213554 11 23 1.6 3.2 0.03 2.95 2.77 96 1007.5
20260505212551 11 23 1.6 6.4 0.05 3.02 2.77 96 1007.6
20260505211548 11 20 3.2 6.4 0.10 3.12 2.77 95 1007.7
20260505210539 12 28 3.2 6.4 0.10 3.15 2.77 94 1007.9
20260505205557 12 23 1.6 3.2 0.10 3.17 2.77 94 1007.9
20260505204528 12 20 1.6 3.2 0.10 3.20 2.77 93 1007.9
20260505203526 12 23 1.6 3.2 0.05 3.20 2.72 92 1007.8
20260505202518 13 232 0.0 3.2 0.03 3.17 2.69 90 1007.7
20260505201614 13 0.0 0.0 0.00 3.28 2.67 88 1007.9
20260505200613 13 180 1.6 3.2 0.00 3.45 2.67 86 1007.6
20260505195733 13 169 0.0 3.2 0.00 3.63 2.67 85 1007.4
20260505194550 13 111 1.6 6.4 0.00 3.81 2.67 85 1007.4
20260505193541 14 150 3.2 6.4 0.00 3.94 2.67 85 1007.2
20260505192558 14 167 3.2 6.4 0.00 3.96 2.67 84 1007.1
20260505191535 14 168 3.2 6.4 0.00 3.99 2.67 83 1006.9
20260505190527 15 169 3.2 6.4 0.00 4.04 2.67 83 1007.0
20260505185524 15 130 3.2 6.4 0.00 4.14 2.67 82 1006.9
20260505184516 15 129 3.2 9.7 0.00 4.19 2.67 82 1006.8
20260505183613 15 143 1.6 6.4 0.00 4.29 2.67 81 1006.7
20260505182559 15 187 0.0 6.4 0.00 4.32 2.67 81 1006.5
20260505181611 15 196 1.6 6.4 0.00 4.37 2.67 80 1006.5
20260505180548 15 203 3.2 6.4 0.00 4.47 2.67 79 1006.2
20260505175559 16 177 4.8 11.3 0.00 4.52 2.67 78 1006.2
20260505174537 16 180 3.2 6.4 0.00 4.62 2.67 78 1006.1
20260505173529 16 128 4.8 9.7 0.00 4.70 2.67 75 1006.0
20260505172526 16 176 4.8 12.9 0.00 4.80 2.67 74 1006.0
20260505171523 16 197 8.0 17.7 0.00 4.95 2.67 73 1005.9
20260505170615 17 146 6.4 14.5 0.00 4.98 2.67 74 1006.0
20260505165612 17 152 4.8 20.9 0.00 5.13 2.67 75 1006.0
20260505164553 17 185 4.8 12.9 0.00 5.26 2.67 76 1006.0